[[{"header":{"parameterUnit":"m.s-1","parameterCategory":1,"la1":30.2991,"la2":30.254,"lo1":-89.0895,"lo2":-89.0444,"dy":0.0017,"dx":0.0017,"nx":28,"ny":28,"refTime":"2025-05-15T21:00:00:Z","depth":0,"parameterNumber":2,"parameterNumberName":"U-component_of_WINDS"},"data":[0,0,0,0,0,0,0,0,0,0,0,0,0,0,0,0,0,0,0,0,0,0,0,0,0,0,0,0,0,0,0,0,0,0,0,0,0,0,0,0,0,0,0,0,0,0,0,0,0,0,0,0,0,0,0,0,0,0,1.2835,1.2835,0,1.2861,1.2862,1.2862,1.2843,1.2842,1.2841,1.284,1.2868,1.2869,1.2871,0,0,0,0,0,0,0,0,0,0,0,0,0,1.2766,1.2768,1.2835,1.2835,1.2835,1.2861,1.2862,1.2862,1.2843,1.2842,1.2841,1.284,1.2867,1.2869,1.2871,0,0,0,0,0,0,0,0,0,0,0,0,0,1.2795,1.2768,1.2835,1.2829,1.2829,1.2861,1.2862,1.2862,1.2843,1.2842,1.2841,1.2839,1.2867,1.2869,1.2871,1.2911,0,0,1.2878,1.2879,0,0,0,0,0,0,0,0,1.2793,1.2797,1.2829,1.2829,1.2829,1.2847,1.2848,1.2879,1.2843,1.2838,1.284,1.2839,1.2862,1.2865,1.2873,1.2912,1.2913,1.2878,1.288,1.2881,1.2881,0,0,0,0,0,0,0,1.2791,1.2796,1.2845,1.283,1.283,1.2825,1.2827,1.2853,1.2857,1.2838,1.2837,1.284,1.2862,1.287,1.2873,1.2914,1.2878,1.288,1.2882,1.2883,1.2987,1.2988,0,0,0,0,0,0,1.279,1.2795,1.2844,1.2846,1.2808,1.2827,1.283,1.2843,1.2856,1.2857,1.2841,1.2839,1.2867,1.287,1.2874,1.2921,1.2881,1.2883,1.2884,1.2986,1.2987,1.2989,0,0,0,0,0,0,1.2789,1.2795,1.2843,1.282,1.2826,1.283,1.2844,1.2844,1.2853,1.2859,1.2859,1.2849,1.2866,1.2871,1.2902,1.2922,1.2884,1.2886,1.2984,1.2986,1.2988,1.3016,0,0,0,0,0,0,1.2787,1.2794,1.281,1.282,1.2827,1.2871,1.2845,1.2845,1.2857,1.2854,1.2867,1.2867,1.2866,1.2898,1.2904,1.2924,1.2888,1.2982,1.2985,1.2987,1.3013,1.3019,1.3024,0,0,0,0,0,1.2784,1.2817,1.281,1.2817,1.2846,1.2872,1.2876,1.2873,1.2858,1.2874,1.2877,1.2867,1.2919,1.2902,1.2908,1.2929,1.2981,1.2984,1.2987,1.3011,1.3018,1.3023,0,0,0,0,0,0,1.2808,1.2818,1.2811,1.2848,1.2859,1.2869,1.2888,1.288,1.2896,1.2893,1.2889,1.2892,1.2924,1.293,1.2911,1.2968,1.2947,1.2952,1.2963,1.297,1.2975,1.2973,1.289,0,0,0,0,0,1.2818,1.2838,1.2845,1.2877,1.2883,1.2885,1.2896,1.2892,1.2904,1.2909,1.2915,1.2926,1.2945,1.2958,1.2975,1.3014,1.3016,1.3031,1.3036,1.3041,1.3045,1.3065,1.3072,1.2999,1.2999,1.2999,0,0,1.2838,1.2845,1.2859,1.2882,1.289,1.2911,1.2889,1.2912,1.2927,1.2912,1.2942,1.2947,1.2959,1.2994,1.301,1.3,1.3065,1.3044,1.3048,1.305,1.3069,1.3076,1.3082,1.3001,1.3001,1.3,0,0,1.2885,1.2893,1.292,1.2928,1.2941,1.2942,1.2949,1.2959,1.2962,1.2991,1.298,1.2998,1.3031,1.304,1.3049,1.3099,1.309,1.3104,1.3131,1.3151,1.3157,1.3162,1.318,1.3186,1.3108,1.3108,1.3108,0,1.2908,1.2939,1.2935,1.2959,1.2969,1.2956,1.2983,1.2992,1.301,1.3017,1.3005,1.3045,1.3053,1.309,1.3102,1.3109,1.3117,1.3103,1.3156,1.3161,1.3166,1.3183,1.3189,1.311,1.311,1.311,1.311,0,1.2967,1.2988,1.3009,1.3026,1.3039,1.3064,1.3064,1.3077,1.3072,1.3074,1.3104,1.3112,1.3131,1.314,1.3136,1.3176,1.3169,1.3157,1.3136,1.3175,1.319,1.3197,1.3113,1.3112,1.3111,1.3111,0,0,1.3031,1.3045,1.3052,1.306,1.3073,1.3089,1.3114,1.3132,1.3143,1.3156,1.3176,1.3203,1.3192,1.3202,1.3199,1.3216,1.3255,1.3202,1.3202,1.3212,1.3299,1.3309,1.3316,1.3248,1.325,1.3251,1.3298,0,1.3078,1.3121,1.3118,1.3158,1.3178,1.3165,1.3187,1.3197,1.3199,1.3216,1.3218,1.3237,1.3221,1.3227,1.3243,1.3247,1.3272,1.3243,1.3268,1.3268,1.3265,1.3324,1.3335,1.3379,1.3304,1.3305,1.3306,0,1.314,1.3155,1.3197,1.3206,1.3214,1.3234,1.325,1.3266,1.3277,1.3277,1.3288,1.3281,1.3306,1.3284,1.3317,1.3297,1.3307,1.331,1.3312,1.3314,1.329,1.3329,1.3393,1.34,1.3316,1.3315,1.3314,0,1.3183,1.3213,1.3242,1.3249,1.326,1.3274,1.3279,1.3289,1.33,1.3314,1.3321,1.3337,1.3346,1.3359,1.3357,1.3342,1.3391,1.3369,1.3392,1.3392,1.3404,1.3403,1.3471,1.3409,1.3409,1.3409,1.3409,0,1.3237,1.3263,1.3261,1.3279,1.3308,1.3303,1.3332,1.3336,1.3344,1.3363,1.3352,1.337,1.3366,1.3383,1.3381,1.3409,1.3413,1.3414,1.3413,1.3415,1.3415,1.3422,1.3419,1.3411,1.3411,1.341,1.341,0,1.3289,1.3289,1.332,1.3328,1.333,1.3352,1.3358,1.3375,1.3376,1.3399,1.3404,1.3406,1.3425,1.3424,1.3447,1.3445,1.348,1.3475,1.3476,1.3475,1.3498,1.3496,1.3573,1.3583,1.3515,1.3515,1.3516,0,1.3324,1.3344,1.3354,1.3365,1.3372,1.339,1.3401,1.3397,1.3409,1.3422,1.3438,1.3456,1.3471,1.3503,1.3506,1.3522,1.3518,1.3544,1.3521,1.3522,1.3519,1.3518,1.352,1.3549,1.355,1.355,1.3551,0,1.3386,1.3384,1.3401,1.3417,1.343,1.3443,1.3454,1.3464,1.3461,1.3475,1.3494,1.3506,1.3528,1.3547,1.3562,1.3568,1.3559,1.3558,1.3564,1.3567,1.3566,1.3567,1.3489,1.3556,1.3556,1.3555,1.3555,1.3555,1.343,1.3447,1.3457,1.3475,1.3483,1.3494,1.351,1.3513,1.3529,1.3547,1.3543,1.3566,1.3575,1.3596,1.3602,1.3619,1.361,1.3619,1.3622,1.3624,1.3627,1.3563,1.3622,1.3622,1.3622,1.3622,1.3622,0,1.3492,1.3497,1.3514,1.353,1.3544,1.3534,1.3546,1.3559,1.3579,1.3588,1.3603,1.3625,1.3643,1.3647,1.3664,1.3677,1.3673,1.3681,1.368,1.3682,1.3634,1.3627,1.3684,1.3684,1.3684,1.3684,1.3684,1.3684,1.3525,1.3554,1.3553,1.3585,1.359,1.3612,1.3619,1.3629,1.3637,1.3662,1.3677,1.3679,1.3687,1.3704,1.3719,1.372,1.3727,1.3737,1.3736,1.3691,1.3685,1.3679,1.3673,1.3738,1.3738,1.3782,1.3783,1.3783]},{"header":{"parameterUnit":"m.s-1","parameterCategory":1,"la1":30.2991,"la2":30.254,"lo1":-89.0895,"lo2":-89.0444,"dy":0.0017,"dx":0.0017,"nx":28,"ny":28,"refTime":"2025-05-15T21:00:00:Z","depth":0,"parameterNumber":3,"parameterNumberName":"V-component_of_WINDS"},"data":[0,0,0,0,0,0,0,0,0,0,0,0,0,0,0,0,0,0,0,0,0,0,0,0,0,0,0,0,0,0,0,0,0,0,0,0,0,0,0,0,0,0,0,0,0,0,0,0,0,0,0,0,0,0,0,0,0,0,4.2851,4.285,0,4.2841,4.2841,4.2841,4.2797,4.2796,4.2795,4.2794,4.2785,4.2786,4.2786,0,0,0,0,0,0,0,0,0,0,0,0,0,4.2831,4.2832,4.2851,4.285,4.285,4.2841,4.2841,4.2841,4.2797,4.2796,4.2795,4.2794,4.2785,4.2785,4.2786,0,0,0,0,0,0,0,0,0,0,0,0,0,4.2832,4.2832,4.2851,4.2827,4.2825,4.2841,4.2841,4.2841,4.2798,4.2796,4.2794,4.2793,4.2784,4.2785,4.2786,4.2824,0,0,4.279,4.279,0,0,0,0,0,0,0,0,4.2832,4.2833,4.2831,4.2829,4.2827,4.2819,4.2831,4.2835,4.2798,4.2808,4.2794,4.2792,4.2797,4.2797,4.2799,4.2824,4.2823,4.279,4.279,4.2791,4.2791,0,0,0,0,0,0,0,4.2832,4.2833,4.2847,4.2831,4.2828,4.2818,4.2816,4.2831,4.2812,4.2807,4.2804,4.2803,4.2796,4.2798,4.2798,4.2823,4.279,4.2791,4.2791,4.2792,4.2879,4.288,0,0,0,0,0,0,4.2836,4.2834,4.2847,4.2847,4.2826,4.2819,4.2818,4.2823,4.2811,4.2808,4.2805,4.2801,4.2797,4.2797,4.2798,4.2842,4.2791,4.2792,4.2792,4.2877,4.2879,4.2881,0,0,0,0,0,0,4.2835,4.2837,4.2847,4.2839,4.284,4.2821,4.2828,4.2823,4.2826,4.2809,4.2806,4.2811,4.2796,4.2796,4.2818,4.2841,4.2792,4.2793,4.2875,4.2878,4.288,4.293,0,0,0,0,0,0,4.2835,4.2837,4.2851,4.284,4.284,4.2868,4.2829,4.2824,4.2827,4.2823,4.2814,4.2811,4.2795,4.2817,4.2819,4.2841,4.2794,4.2873,4.2876,4.2879,4.2926,4.2934,4.294,0,0,0,0,0,4.2834,4.2866,4.2852,4.2854,4.2857,4.2869,4.2869,4.285,4.2829,4.2844,4.2833,4.2811,4.2838,4.2819,4.2822,4.2845,4.2872,4.2875,4.2879,4.2923,4.2932,4.294,0,0,0,0,0,0,4.288,4.2864,4.2849,4.2877,4.2875,4.2862,4.2879,4.286,4.2864,4.286,4.2835,4.2834,4.2859,4.2854,4.2833,4.2881,4.2851,4.2855,4.2883,4.2892,4.2899,4.29,4.2795,0,0,0,0,0,4.2894,4.2904,4.2889,4.2916,4.2915,4.2898,4.2902,4.2887,4.2884,4.2883,4.2874,4.2872,4.288,4.2885,4.2892,4.2925,4.2923,4.2942,4.2949,4.2955,4.2959,4.2977,4.2986,4.2893,4.2893,4.2893,0,0,4.2921,4.2914,4.2922,4.2925,4.2921,4.2934,4.2897,4.2911,4.292,4.2885,4.2905,4.2899,4.2895,4.2922,4.2934,4.2919,4.2984,4.296,4.2964,4.2966,4.2982,4.2991,4.2999,4.2896,4.2895,4.2895,0,0,4.2978,4.2973,4.2995,4.2993,4.2988,4.2976,4.2981,4.2971,4.2965,4.2985,4.2959,4.2969,4.2983,4.2982,4.2983,4.304,4.302,4.3043,4.308,4.3098,4.3105,4.3111,4.3133,4.3141,4.3047,4.3047,4.3047,0,4.3014,4.3031,4.3009,4.3025,4.3027,4.2996,4.3018,4.3017,4.3015,4.3017,4.3,4.3017,4.3012,4.304,4.3054,4.3055,4.3061,4.3044,4.3106,4.3112,4.3118,4.3138,4.3146,4.305,4.3049,4.3049,4.3049,0,4.3075,4.3087,4.3105,4.3104,4.3109,4.3128,4.3109,4.3116,4.3101,4.3091,4.3112,4.3104,4.3109,4.3114,4.31,4.314,4.3131,4.311,4.308,4.313,4.3148,4.3155,4.3054,4.3053,4.3052,4.3051,0,0,4.3161,4.3148,4.3155,4.3154,4.3147,4.3156,4.3174,4.3179,4.3186,4.3185,4.32,4.3212,4.3193,4.3195,4.3179,4.3195,4.3242,4.3172,4.3172,4.3186,4.3287,4.3303,4.3312,4.3228,4.3229,4.323,4.3287,0,4.3216,4.3246,4.3227,4.326,4.3272,4.3242,4.3258,4.3255,4.3246,4.3255,4.3245,4.3255,4.3228,4.3229,4.3243,4.3233,4.3262,4.3228,4.3242,4.3243,4.3245,4.3322,4.3339,4.3393,4.3294,4.3296,4.3296,0,4.3285,4.3288,4.3322,4.3313,4.3317,4.3332,4.3335,4.3343,4.334,4.3332,4.3334,4.3315,4.3332,4.3302,4.3326,4.3304,4.3308,4.3304,4.3306,4.3307,4.3274,4.3326,4.341,4.3419,4.3307,4.3307,4.3306,0,4.3346,4.3358,4.338,4.3381,4.337,4.3381,4.3378,4.3373,4.3377,4.3379,4.3382,4.3387,4.339,4.3394,4.3377,4.3356,4.3403,4.3371,4.3398,4.3399,4.341,4.341,4.3497,4.3411,4.3411,4.3411,4.3411,0,4.341,4.3433,4.3408,4.3422,4.3446,4.3424,4.3449,4.3442,4.3438,4.345,4.3424,4.3436,4.3412,4.3422,4.3409,4.3431,4.3432,4.3427,4.3424,4.343,4.3431,4.3434,4.343,4.3413,4.3413,4.3412,4.3412,0,4.3483,4.3466,4.3489,4.3478,4.3475,4.3494,4.3484,4.3497,4.3486,4.3502,4.3504,4.3488,4.3498,4.3481,4.3489,4.348,4.3512,4.3501,4.3513,4.351,4.3539,4.3537,4.3631,4.3643,4.3549,4.355,4.3551,0,4.3525,4.3542,4.3532,4.3539,4.3537,4.3547,4.3552,4.353,4.3536,4.3534,4.3547,4.3555,4.356,4.3578,4.3567,4.3573,4.3564,4.3596,4.3564,4.3571,4.3565,4.3565,4.3567,4.3603,4.3604,4.3605,4.3606,0,4.3603,4.3595,4.3602,4.3607,4.3612,4.3615,4.3616,4.3623,4.36,4.3608,4.3618,4.3622,4.3631,4.3639,4.3643,4.3639,4.362,4.3616,4.3623,4.363,4.3637,4.3635,4.3532,4.3614,4.3613,4.3613,4.3612,4.3612,4.3663,4.3677,4.3672,4.3681,4.368,4.3681,4.3693,4.3683,4.3691,4.3697,4.3684,4.3697,4.3694,4.3697,4.3695,4.3706,4.3691,4.3701,4.3703,4.3706,4.3711,4.3634,4.3706,4.3706,4.3705,4.3705,4.3705,0,4.374,4.3736,4.3745,4.3747,4.3754,4.3734,4.3734,4.3742,4.3754,4.3752,4.3758,4.3771,4.3779,4.3768,4.3775,4.3785,4.3777,4.3788,4.3788,4.3787,4.3723,4.3717,4.3795,4.3795,4.3795,4.3795,4.3795,4.3795,4.3782,4.3804,4.3795,4.3817,4.3812,4.3826,4.3828,4.3829,4.3828,4.3842,4.3849,4.3842,4.3837,4.3843,4.385,4.3847,4.3851,4.3866,4.386,4.38,4.3792,4.3783,4.3778,4.3867,4.3867,4.3923,4.3923,4.3924]}]]